• En Estados Unidos
  • Lista de países
  • Para 7 días
  • Temperatura del agua
  • Mapa Satelital
  • El tiempo en el mapa
  • Informadores
  • user-avatar
    Iniciar sesión

    Tiempo cada hora Saurimo

    Hoy, 23 Septiembre, Domingo

    Tiempo Temperatura Precipitaciones Viento Presión Humedad
    00:00 +23°C° 0 mm 0 mps 669 mmHg 36%
    01:00 +23°C° 0 mm 0 mps 669 mmHg 36%
    02:00 +22°C° 0 mm 0 mps 668 mmHg 37%
    03:00 +22°C° 0 mm 0 mps 668 mmHg 38%
    04:00 +21°C° 0 mm 0 mps 668 mmHg 39%
    05:00 +22°C° 0 mm 0 mps 669 mmHg 37%
    06:00 +26°C° 0 mm 1 mps 669 mmHg 34%
    07:00 +27°C° 0 mm 1 mps 670 mmHg 32%
    08:00 +31°C° 0 mm 1 mps 671 mmHg 26%
    09:00 +35°C° 0 mm 1 mps 672 mmHg 21%
    10:00 +39°C° 0 mm 2 mps 672 mmHg 16%
    11:00 +39°C° 0 mm 2 mps 671 mmHg 16%
    12:00 +38°C° 0 mm 2 mps 671 mmHg 16%
    13:00 +37°C° 0 mm 2 mps 670 mmHg 16%
    14:00 +37°C° 0 mm 2 mps 669 mmHg 17%
    15:00 +37°C° 0 mm 2 mps 669 mmHg 17%
    16:00 +37°C° 0 mm 2 mps 669 mmHg 18%
    17:00 +35°C° 0 mm 2 mps 669 mmHg 21%
    18:00 +32°C° 0 mm 2 mps 669 mmHg 24%
    19:00 +30°C° 0 mm 1 mps 669 mmHg 27%
    20:00 +29°C° 0 mm 1 mps 669 mmHg 30%
    21:00 +28°C° 0 mm 1 mps 669 mmHg 33%
    22:00 +27°C° 0 mm 1 mps 669 mmHg 35%
    23:00 +27°C° 0 mm 1 mps 669 mmHg 36%

    Mañana, 24 Septiembre, Lunes

    Tiempo Temperatura Precipitaciones Viento Presión Humedad
    00:00 +26°C° 0 mm 1 mps 669 mmHg 38%
    01:00 +26°C° 0 mm 1 mps 668 mmHg 39%
    02:00 +25°C° 0 mm 1 mps 668 mmHg 40%
    03:00 +24°C° 0 mm 1 mps 668 mmHg 42%
    04:00 +24°C° 0 mm 1 mps 668 mmHg 44%
    05:00 +25°C° 0 mm 2 mps 669 mmHg 44%
    06:00 +26°C° 0 mm 2 mps 669 mmHg 43%
    07:00 +27°C° 0 mm 2 mps 670 mmHg 43%
    08:00 +30°C° 0 mm 2 mps 671 mmHg 38%
    09:00 +34°C° 0 mm 2 mps 672 mmHg 32%
    10:00 +37°C° 0 mm 2 mps 672 mmHg 27%
    11:00 +37°C° 0 mm 2 mps 671 mmHg 25%
    12:00 +36°C° 0 mm 2 mps 670 mmHg 23%
    13:00 +36°C° 0 mm 2 mps 669 mmHg 21%
    14:00 +36°C° 0 mm 2 mps 669 mmHg 21%
    15:00 +36°C° 0 mm 2 mps 669 mmHg 22%
    16:00 +36°C° 0 mm 2 mps 668 mmHg 22%
    17:00 +34°C° 0 mm 2 mps 669 mmHg 26%
    18:00 +31°C° 0 mm 2 mps 669 mmHg 29%
    19:00 +29°C° 0 mm 2 mps 669 mmHg 32%
    20:00 +29°C° 0 mm 1 mps 669 mmHg 34%
    21:00 +28°C° 0 mm 1 mps 669 mmHg 36%
    22:00 +25°C° 0 mm 0 mps 669 mmHg 38%
    23:00 +27°C° 0 mm 1 mps 669 mmHg 39%

    Pasado mañana, 25 Septiembre, Martes

    Tiempo Temperatura Precipitaciones Viento Presión Humedad
    00:00 +27°C° 0 mm 1 mps 669 mmHg 39%
    01:00 +27°C° 0 mm 1 mps 668 mmHg 40%
    02:00 +26°C° 0 mm 1 mps 668 mmHg 43%
    03:00 +25°C° 0 mm 1 mps 668 mmHg 47%
    04:00 +24°C° 0 mm 1 mps 668 mmHg 50%
    05:00 +25°C° 0 mm 2 mps 669 mmHg 51%
    06:00 +26°C° 0 mm 2 mps 669 mmHg 51%
    07:00 +27°C° 0 mm 3 mps 670 mmHg 51%
    08:00 +30°C° 0 mm 2 mps 671 mmHg 43%
    09:00 +34°C° 0 mm 2 mps 671 mmHg 36%
    10:00 +37°C° 0 mm 2 mps 672 mmHg 28%
    11:00 +37°C° 0 mm 2 mps 671 mmHg 27%
    12:00 +37°C° 0 mm 2 mps 670 mmHg 25%
    13:00 +35°C° 0 mm 1 mps 669 mmHg 23%
    14:00 +35°C° 0 mm 1 mps 668 mmHg 23%
    15:00 +35°C° 0 mm 1 mps 668 mmHg 24%
    16:00 +35°C° 0 mm 1 mps 668 mmHg 24%
    17:00 +33°C° 0 mm 1 mps 669 mmHg 26%
    18:00 +32°C° 0 mm 1 mps 669 mmHg 29%
    19:00 +30°C° 0 mm 1 mps 669 mmHg 31%
    20:00 +30°C° 0 mm 1 mps 669 mmHg 33%
    21:00 +29°C° 0 mm 1 mps 670 mmHg 35%
    22:00 +28°C° 0 mm 1 mps 670 mmHg 36%
    23:00 +28°C° 0 mm 1 mps 669 mmHg 39%

    26 Septiembre, Miércoles

    Tiempo Temperatura Precipitaciones Viento Presión Humedad
    00:00 +27°C° 0 mm 1 mps 669 mmHg 41%
    01:00 +26°C° 0 mm 1 mps 668 mmHg 44%
    02:00 +25°C° 0 mm 1 mps 668 mmHg 48%
    03:00 +25°C° 0 mm 1 mps 668 mmHg 51%
    04:00 +24°C° 0 mm 1 mps 668 mmHg 55%
    05:00 +25°C° 0 mm 2 mps 669 mmHg 54%
    06:00 +26°C° 0 mm 2 mps 670 mmHg 53%
    07:00 +27°C° 0 mm 2 mps 670 mmHg 52%
    08:00 +30°C° 0 mm 2 mps 671 mmHg 45%
    09:00 +34°C° 0 mm 2 mps 671 mmHg 37%
    10:00 +36°C° 0 mm 2 mps 672 mmHg 30%
    11:00 +37°C° 0 mm 2 mps 671 mmHg 27%
    12:00 +38°C° 0 mm 2 mps 670 mmHg 23%
    13:00 +39°C° 0 mm 2 mps 669 mmHg 20%
    14:00 +38°C° 0 mm 2 mps 669 mmHg 22%
    15:00 +37°C° 0 mm 2 mps 669 mmHg 23%
    16:00 +35°C° 0 mm 1 mps 669 mmHg 24%
    17:00 +34°C° 0 mm 2 mps 669 mmHg 30%
    18:00 +31°C° 0 mm 2 mps 669 mmHg 36%
    19:00 +29°C° 0 mm 2 mps 669 mmHg 42%
    20:00 +28°C° 0.1 mm 2 mps 669 mmHg 48%
    21:00 +26°C° 0.1 mm 2 mps 669 mmHg 54%
    22:00 +25°C° 0.1 mm 2 mps 669 mmHg 59%
    23:00 +25°C° 0.1 mm 2 mps 669 mmHg 63%

    27 Septiembre, Jueves

    Tiempo Temperatura Precipitaciones Viento Presión Humedad
    00:00 +24°C° 0.1 mm 2 mps 668 mmHg 66%
    01:00 +23°C° 0.1 mm 2 mps 668 mmHg 70%
    02:00 +23°C° 0.1 mm 1 mps 668 mmHg 73%
    03:00 +22°C° 0.1 mm 1 mps 668 mmHg 75%
    04:00 +22°C° 0.1 mm 1 mps 668 mmHg 78%
    05:00 +23°C° 0 mm 1 mps 669 mmHg 74%
    06:00 +24°C° 0 mm 1 mps 669 mmHg 70%
    07:00 +25°C° 0 mm 1 mps 670 mmHg 65%
    08:00 +28°C° 0 mm 2 mps 670 mmHg 54%
    09:00 +32°C° 0 mm 2 mps 671 mmHg 42%
    10:00 +36°C° 0 mm 2 mps 671 mmHg 30%
    11:00 +37°C° 0 mm 2 mps 671 mmHg 29%
    12:00 +37°C° 0 mm 2 mps 670 mmHg 27%
    13:00 +36°C° 0 mm 1 mps 669 mmHg 25%
    14:00 +36°C° 0 mm 1 mps 669 mmHg 26%
    15:00 +36°C° 0 mm 2 mps 668 mmHg 26%
    16:00 +36°C° 0 mm 2 mps 668 mmHg 27%
    17:00 +33°C° 0 mm 1 mps 669 mmHg 31%
    18:00 +31°C° 0 mm 1 mps 669 mmHg 35%
    19:00 +29°C° 0 mm 1 mps 669 mmHg 39%
    20:00 +28°C° 0 mm 1 mps 669 mmHg 42%
    21:00 +27°C° 0 mm 1 mps 669 mmHg 45%
    22:00 +27°C° 0 mm 1 mps 669 mmHg 48%
    23:00 +26°C° 0 mm 1 mps 668 mmHg 52%

    28 Septiembre, Viernes

    Tiempo Temperatura Precipitaciones Viento Presión Humedad
    00:00 +25°C° 0 mm 1 mps 668 mmHg 56%
    01:00 +24°C° 0 mm 1 mps 667 mmHg 60%
    02:00 +24°C° 0.2 mm 2 mps 668 mmHg 64%
    03:00 +23°C° 0.2 mm 2 mps 668 mmHg 68%
    04:00 +21°C° 0.2 mm 2 mps 668 mmHg 73%
    05:00 +23°C° 0.1 mm 2 mps 669 mmHg 71%
    06:00 +24°C° 0.1 mm 2 mps 670 mmHg 69%
    07:00 +25°C° 0.1 mm 2 mps 670 mmHg 67%
    08:00 +28°C° 0 mm 2 mps 671 mmHg 56%
    09:00 +32°C° 0 mm 2 mps 671 mmHg 45%
    10:00 +36°C° 0 mm 2 mps 672 mmHg 34%
    11:00 +36°C° 0 mm 2 mps 671 mmHg 33%
    12:00 +35°C° 0 mm 2 mps 670 mmHg 33%
    13:00 +35°C° 0 mm 2 mps 669 mmHg 32%
    14:00 +34°C° 0.4 mm 3 mps 668 mmHg 37%
    15:00 +33°C° 0.4 mm 3 mps 668 mmHg 42%
    16:00 +31°C° 0.4 mm 3 mps 668 mmHg 47%
    17:00 +29°C° 2.6 mm 3 mps 668 mmHg 57%
    18:00 +26°C° 2.6 mm 3 mps 668 mmHg 67%
    19:00 +24°C° 2.6 mm 3 mps 669 mmHg 77%
    20:00 +24°C° 0.2 mm 3 mps 669 mmHg 77%
    21:00 +24°C° 0.2 mm 3 mps 670 mmHg 78%
    22:00 +23°C° 0.2 mm 4 mps 670 mmHg 78%
    23:00 +24°C° 0 mm 3 mps 670 mmHg 81%
    Mostrar más